Погода в Туркестане

Хотите узнать прогноз погоды в Туркестане? Тогда Вам сюда: Погода в Туркестане

Поиск расширенной информации на нашем сайте:

Полезная информация:

Новости сайта



02.01.2020
Опубликован Долгосрочный прогноз погоды по городам России и ближнего зарубежья на январь 2020 года.
Карты: Прогноз на январь и февраль 2020 года, Сравнение прогнозируемой аномалии приземной температуры воздуха на январь 2020 года по разным моделям.




Погода в Туркестане - сегодня

Время (UTC), дата Ветер
(°,м/с) 
Видим.   Явления Облачность Т
(°С)
Тd
(°С)
f(%) Тe
(°С)
Pmin
(гПа)
dP
(гПа)
Po
(мм)
O2
(г/м3)
Тmin Tmax R s Состояние
почвы
21 22.09.20 320 (СЗ) н/о    ясно 
+8.4 -3 44 +9  1021.1  -0.4  747  292           
00 23.09.20 тихо ()   н/о    ясно 
+6.4 -2.4 53 +6  1021.3  747  294           
03 23.09.20 тихо ()   20000 м    5/0 верхняя 
[Ci sp]
+8.3 -1.4 50 +8  1022.2  748  293           
06 23.09.20 300 (СЗ) 20000 м    5/0 верхняя 
[Ci fib]
+19 -5.4 19 +20  1021.1  -0.2  748  282  +5.5         
09 23.09.20 260 (З) 20000 м    8/0 верхняя 
[Ci fib]
+21.3 -7.3 14 +21  1019  -1.8  746  280           
12 23.09.20 290 (З) 20000 м    9/0 верхняя 
[Cs]
+20.9 -7.3 14 +21  1017.7  -1.3  745  280           
15 23.09.20 320 (СЗ) н/о    9/0 верхняя 
[Cs]
+15.4 -6 22 +17  1018.5  0.3  746  285    +21.9       
18 23.09.20 тихо ()   н/о    6/0 верхняя 
[Cs]
+10.8 -4.1 35 +11  1018.8  746  289    +21.9       
21 23.09.20 тихо ()   н/о    ясно 
+8.6 -3.4 43 +9  1019.1  746  292           
00 24.09.20 110 (В) н/о    ясно 
+6.4 -5 44 +6  1019.5  0.2  746  294           
03 24.09.20 110 (В) 20000 м    ясно 
+9.2 -4.9 37 +9  1020.8  1.5  747  292           
06 24.09.20 270 (З) 10 км    ясно 
+20.2 -7 15 +20  1020.2  0.3  747  281  +5.8         
09 24.09.20 230 (ЮЗ) 20000 м    ясно 
+23.9 -5.2 14 +24  1018.4  -1.4  746  277           
12 24.09.20 310 (СЗ) 20000 м    ясно 
+24 -4 15 +24  1017.7  -0.6  746  277           
15 24.09.20 340 (С) н/о    ясно 
+17.2 +0.2 32 +18  1018.7  0.4  746  283    +25       
18 24.09.20 040 (СВ) н/о    ясно 
+14.8 +0.9 39 +15  1018.5  -0.4  746  285    +25       
21 24.09.20 290 (З) н/о    ясно 
+9.1 -1.5 47 +9  1018.5  -0.5  745  291           
00 25.09.20 320 (СЗ) н/о    ясно 
+7.9 +1.3 63 +9  1018.4  -0.2  745  292           
03 25.09.20 330 (СЗ) 20000 м    ясно 
+12 +0.5 45 +12  1018.3  0.2  745  288           
06 25.09.20 080 (В) 20000 м    ясно 
+22.9 -3.4 17 +23  1016.9  -0.4  745  277  +6         
09 25.09.20 030 (СВ) 20000 м    ясно 
+24.2 -5.4 14 +24  1015.7  -1.1  744  276           
12 25.09.20 070 (В) 20000 м    4/0 верхняя 
[Cc]
+23 -8 12 +23  1015.4  -0.4  748  279           
15 25.09.20 070 (В) н/о    ясно 
+17.7 -6.5 19 +18  1016.2  0.4  744  282    +24.9       
18 25.09.20 070 (В) н/о    ясно 
+15.7 -5.7 22 +15  1016.1  -0.3  744  284    +24.9       
21 25.09.20 090 (В) н/о    ясно 
+14 -3.9 29 +13  1015.7  -0.5  743  285           
Время (UTC), дата Ветер
(°,м/с) 
Видим.   Явления Облачность Т
(°С)
Тd
(°С)
f(%) Тe
(°С)
Pmin
(гПа)
dP
(гПа)
Po
(мм)
O2
(г/м3)
Тmin Tmax R s Состояние
почвы

Для получения пояснительной информации подведите курсор к названию столбца.

ПОГОДА в Туркестане - архив

Всё, что Вы хотите узнать о погоде в Туркестане - удобно и подробно!

Выберите нужную дату (начиная с 1 января 2019* года) и нажмите кнопку "Найти".
Будут отображены архивные сводки погоды по пункту Туркестан, начиная с указанной даты.


Отображать данные в формате CSV (для использования в таблицах Excel)


Внимание! Наш архив погоды предназначен исключительно для личного некоммерческого использования в познавательных целях. Если Вам необходимы официальные справки о состоянии погоды (для производственных, юридических, коммерческих и т.п. целей), обращайтесь в органы Росгидромета.

*Примечание: данная дата относится к архиву по метеостанциям СССР (Россия, СНГ, Балтия).
Архив по метеостанциям Зарубежной Европы и Азии (кроме Китая) хранится 10 дней, по другим регионам земного шара (Китай, Африка, Америка, Австралия, Океания) - 1 день.

Туркестан - район местоположения метеостанции


Название, широта, долгота, высота метеостанции:
Туркестан 43.3°ш. 68.2°д. 207 м над ур. моря [Казахстан]

Дополнительная информация

В oтличие oт бoльшинства пoгoдных сайтoв мы публикуем пoдрoбную метеoинфoрмацию в детальнoм прoфессиoнальнoм фoрмате.

Характеристики температуры и влажнoсти вoздуха измеряются на высoте 2 м в тени вдали oт зданий и деревьев.
Скoрoсть ветра измеряется на высoте 10 м (на урoвне рoста челoвека скoрoсть ветра ниже в 1.5-2 раза). Если метеoстанция нахoдится в гoрoде или в лесу, тo скoрoсть ветра занижена на 2-4 м/с пo сравнению с oткрытым местoм. Скoрoсть ветра над акватoриями крупных рек и oзёр, а также на вершинах хoлмoв на 2-5 м/с выше, чем в oбычных услoвиях.
Атмoсфернoе давление в разных тoчках местнoсти мoжет значительнo oтличаться oт давления на метеoстанции, в зависимoсти oт услoвий рельефа (при пoдъёме на 10 м давление пoнижается примернo на 1 мм рт.ст.).